Location: Newark
(21.1200°N, 73.4000°E)
Time: 22:01:20
(UTC+00:00)

Courier 1B Rocket - Pass Details

Date: 26 January 2020
Orbit: 920 x 1202 km, 28.2° (Epoch: 19 February)

Event Time Altitude Azimuth Distance (km) Brightness Sun altitude
Rises 13:54:02 0° 268° (W) 3,573 9.6 -14.5°
Reaches altitude 10° 13:57:47 10° 247° (WSW) 2,607 8.6 -15.4°
Maximum altitude 14:01:19 16° 212° (SSW) 2,219 7.5 -16.2°
Drops below altitude 10° 14:04:52 10° 177° (S) 2,603 7.4 -17.0°
Sets 14:08:38 0° 155° (SSE) 3,564 7.8 -17.8°
